FW1757 Weather Reports


time (UTC)temp
F
wind
direction
speed
knots
gust
knots
rain 1hr
in
rain 24hr
in
rain mn
in
humidity
%
barometer
mb
20260906023111 67 276 0.0 0.0 0.00 0.00 0.00 59 1014.3
20260906022602 67 276 0.0 0.0 0.00 0.00 0.00 59 1014.4
20260906022057 68 276 0.0 0.0 0.00 0.00 0.00 59 1014.3
20260906021556 68 276 0.0 0.0 0.00 0.00 0.00 58 1014.3
20260906021053 68 276 0.0 0.0 0.00 0.00 0.00 58 1014.3
20260906020552 69 276 0.0 0.0 0.00 0.00 0.00 57 1014.2
20260906020057 69 277 0.0 0.0 0.00 0.00 0.00 57 1014.2
20260906015549 69 277 0.0 0.0 0.00 0.00 0.00 57 1014.3
20260906015049 69 277 0.0 0.0 0.00 0.00 0.00 57 1014.2
20260906014548 69 277 0.0 0.0 0.00 0.00 0.00 58 1014.3
20260906014046 69 277 0.0 0.0 0.00 0.00 0.00 59 1014.3
20260906013545 69 277 0.0 0.0 0.00 0.00 0.00 59 1014.3
20260906013045 68 277 0.0 0.0 0.00 0.00 0.00 59 1014.4
20260906012545 68 277 0.0 0.0 0.00 0.00 0.00 59 1014.5
20260906012045 68 277 0.0 0.0 0.00 0.00 0.00 59 1014.5
20260906011547 68 279 0.0 0.0 0.00 0.00 0.00 59 1014.4
20260906011044 68 223 0.0 0.0 0.00 0.00 0.00 60 1014.4
20260906010544 68 257 0.0 0.0 0.00 0.00 0.00 61 1014.5
20260906010044 67 213 0.0 0.0 0.00 0.00 0.00 61 1014.6
20260906005544 67 202 0.0 0.0 0.00 0.00 0.00 63 1014.6
20260906005044 66 232 0.0 0.0 0.00 0.00 0.00 62 1014.7
20260906004550 66 263 0.0 0.0 0.00 0.00 0.00 62 1014.6
20260906004044 66 158 0.0 0.0 0.00 0.00 0.00 64 1014.7
20260906003544 66 159 0.0 0.0 0.00 0.00 0.00 63 1014.8
20260906003049 66 201 0.0 0.0 0.00 0.00 0.00 63 1014.9
20260906002543 66 198 0.0 0.0 0.00 0.00 0.00 61 1014.9
20260906002044 67 179 0.0 0.0 0.00 0.00 0.00 60 1014.8
20260906001545 67 198 0.0 0.0 0.00 0.00 0.00 58 1014.8
20260906001040 67 238 0.0 0.0 0.00 0.00 0.00 58 1014.8
20260906000539 68 190 0.0 0.0 0.00 0.00 0.00 57 1014.8
20260906000038 68 250 0.0 0.0 0.00 0.00 0.00 55 1014.7
20260905235539 68 256 0.0 0.0 0.00 0.00 0.00 55 1014.8
20260905235034 68 248 0.0 0.0 0.00 0.00 0.00 54 1014.7
20260905234534 69 285 0.0 0.0 0.00 0.00 0.00 54 1014.6
20260905234032 69 279 0.0 0.0 0.00 0.00 0.00 54 1014.7
20260905233531 69 290 0.0 0.0 0.00 0.00 0.00 53 1014.6
20260905233032 69 286 0.0 0.0 0.00 0.00 0.00 53 1014.4
20260905232528 70 291 0.0 0.0 0.00 0.00 0.00 53 1014.6
20260905232029 70 285 0.0 0.0 0.00 0.00 0.00 52 1014.6
20260905231533 71 274 0.0 0.0 0.00 0.00 0.00 51 1014.6
20260905231026 72 306 0.0 0.0 0.00 0.00 0.00 49 1014.5
20260905230521 73 298 0.0 0.0 0.00 0.00 0.00 47 1014.6
20260905230020 74 288 0.0 0.0 0.00 0.00 0.00 45 1014.6
20260905225519 75 269 0.0 0.0 0.00 0.00 0.00 44 1014.5
20260905225017 76 281 0.0 0.0 0.00 0.00 0.00 44 1014.4
20260905224521 77 279 0.0 0.0 0.00 0.00 0.00 42 1014.4
20260905224023 78 263 0.0 0.0 0.00 0.00 0.00 40 1014.4
20260905223512 78 355 0.0 0.0 0.00 0.00 0.00 39 1014.4
20260905223011 78 333 0.0 0.0 0.00 0.00 0.00 38 1014.4
20260905222510 77 78 0.0 0.0 0.00 0.00 0.00 38 1014.4
20260905222008 77 96 0.0 0.0 0.00 0.00 0.00 39 1014.4
20260905221506 76 321 0.0 0.0 0.00 0.00 0.00 39 1014.5
20260905221005 76 48 0.0 0.0 0.00 0.00 0.00 41 1014.6
20260905220506 75 305 0.0 0.0 0.00 0.00 0.00 43 1014.6
20260905220002 75 329 0.0 0.0 0.00 0.00 0.00 46 1014.6
20260905215601 75 330 0.0 0.0 0.00 0.00 0.00 42 1014.6
20260905215101 75 142 0.0 0.0 0.00 0.00 0.00 40 1014.8
20260905214606 74 144 0.0 0.0 0.00 0.00 0.00 39 1014.7
20260905214057 73 223 0.0 0.0 0.00 0.00 0.00 42 1014.7
20260905213554 73 165 0.0 0.0 0.00 0.00 0.00 43 1014.8
20260905213055 73 154 0.0 0.0 0.00 0.00 0.00 44 1014.8
20260905212556 73 168 0.0 0.0 0.00 0.00 0.00 43 1014.9
20260905212050 73 185 0.0 0.0 0.00 0.00 0.00 43 1014.9
20260905211550 73 198 0.0 0.0 0.00 0.00 0.00 42 1015.0
20260905211047 73 280 0.0 0.0 0.00 0.00 0.00 43 1014.9
20260905210547 73 279 0.0 0.0 0.00 0.00 0.00 43 1014.9
20260905210053 73 122 0.0 0.0 0.00 0.00 0.00 45 1015.1
20260905205544 73 103 0.0 0.0 0.00 0.01 0.00 44 1015.1
20260905205042 74 61 0.0 0.0 0.00 0.01 0.00 43 1015.1
20260905204543 74 61 0.0 0.0 0.00 0.01 0.00 43 1015.1
20260905204039 74 34 0.0 0.0 0.00 0.01 0.00 43 1015.1
20260905203538 75 107 0.0 0.0 0.00 0.01 0.00 44 1015.2
20260905203038 75 52 0.0 0.0 0.00 0.01 0.00 44 1015.2
20260905202535 74 154 0.0 0.0 0.00 0.01 0.00 45 1015.1
20260905202033 74 32 0.0 0.0 0.00 0.01 0.00 46 1015.2
20260905201531 73 70 0.0 0.0 0.00 0.01 0.00 47 1015.2
20260905201030 73 55 0.0 0.0 0.00 0.01 0.00 48 1015.2
20260905200533 72 17 0.0 0.0 0.00 0.01 0.00 49 1015.2
20260905200029 72 29 0.0 0.0 0.00 0.01 0.00 50 1015.4
20260905195526 71 193 0.0 0.0 0.00 0.01 0.00 52 1015.3
20260905195024 70 70 0.0 0.0 0.00 0.01 0.00 54 1015.4
20260905194523 69 325 0.0 0.0 0.00 0.01 0.00 57 1015.6
20260905194021 69 29 0.0 0.0 0.00 0.01 0.00 57 1015.5
20260905193520 69 350 0.0 0.0 0.00 0.01 0.00 60 1015.5
20260905193018 68 344 0.0 0.0 0.00 0.01 0.00 60 1015.6
20260905192520 68 325 0.0 0.0 0.00 0.01 0.00 62 1015.7
20260905192015 67 302 0.0 0.0 0.00 0.01 0.00 62 1015.8
20260905191514 67 286 0.0 0.0 0.00 0.01 0.00 62 1015.8
20260905191012 66 273 0.0 0.0 0.00 0.01 0.00 64 1015.9
20260905190513 66 273 0.0 0.0 0.00 0.01 0.00 64 1015.9
20260905190023 65 247 0.0 0.0 0.00 0.01 0.00 65 1016.1
20260905185508 65 247 0.0 0.0 0.00 0.01 0.00 65 1016.1
20260905185010 65 246 0.0 0.0 0.00 0.01 0.00 65 1016.2
20260905184509 64 237 0.0 0.0 0.00 0.01 0.00 66 1016.2
20260905184007 64 236 0.0 0.0 0.00 0.01 0.00 65 1016.3
20260905183503 63 277 0.0 0.0 0.00 0.01 0.00 66 1016.4
20260905183002 63 277 0.0 0.0 0.00 0.01 0.00 66 1016.4
20260905182600 63 263 0.0 0.0 0.00 0.01 0.00 66 1016.4
20260905182059 62 263 0.0 0.0 0.00 0.01 0.00 66 1016.4
20260905181557 62 263 0.0 0.0 0.00 0.01 0.00 66 1016.4
20260905181055 61 263 0.0 0.0 0.00 0.01 0.00 65 1016.5
20260905180554 61 263 0.0 0.0 0.00 0.01 0.00 63 1016.5
20260905180111 61 264 0.0 0.0 0.00 0.01 0.00 59 1016.6
20260905175552 60 264 0.0 0.0 0.00 0.01 0.00 54 1016.7
20260905175052 60 263 0.0 0.0 0.00 0.01 0.00 51 1016.6
20260905174548 60 253 0.0 0.0 0.00 0.01 0.00 50 1016.7
20260905174047 59 275 0.0 0.0 0.00 0.01 0.00 42 1016.7
20260905173545 59 268 0.0 0.0 0.00 0.01 0.00 31 1016.7
20260905173106 59 278 0.0 0.0 0.00 0.01 0.00 29 1016.7
20260905172542 59 278 0.0 0.0 0.00 0.01 0.00 31 1016.8
20260905172041 58 278 0.0 0.0 0.00 0.01 0.00 32 1016.9
20260905171550 58 278 0.0 0.0 0.00 0.01 0.00 32 1016.8
20260905171037 58 276 0.0 0.0 0.00 0.01 0.00 24 1016.7
20260905170536 58 276 0.0 0.0 0.00 0.01 0.00 24 1016.7
20260905170035 58 276 0.0 0.0 0.00 0.01 0.00 28 1016.8
20260905165535 58 275 0.0 0.0 0.00 0.01 0.00 18 1016.8
20260905165032 58 268 0.0 0.0 0.00 0.01 0.00 14 1016.7
20260905164531 57 267 0.0 0.0 0.00 0.01 0.00 10 1016.7
20260905164029 57 263 0.0 0.0 0.00 0.01 0.00 8 1016.7
20260905163528 57 263 0.0 0.0 0.00 0.01 0.00 8 1016.7
20260905163026 57 252 0.0 0.0 0.00 0.01 0.00 6 1016.6
20260905162525 57 252 0.0 0.0 0.00 0.01 0.00 4 1016.6
20260905162023 56 252 0.0 0.0 0.00 0.01 0.00 1 1016.6
20260905161525 56 252 0.0 0.0 0.00 0.01 0.00 1 1016.6
20260905161023 56 252 0.0 0.0 0.00 0.01 0.00 1 1016.7
20260905160519 56 360 0.0 0.0 0.00 0.01 0.00 1 1016.6
20260905160027 55 252 0.0 0.0 0.00 0.01 0.00 1 1016.6
20260905155516 55 252 0.0 0.0 0.00 0.01 0.00 1 1016.6
20260905155016 55 251 0.0 0.0 0.00 0.01 0.00 1 1016.6
20260905154513 55 252 0.0 0.0 0.00 0.01 0.00 1 1016.5
20260905154014 55 252 0.0 0.0 0.00 0.01 0.00 1 1016.6
20260905153510 54 360 0.0 0.0 0.00 0.01 0.00 1 1016.6
20260905153008 54 360 0.0 0.0 0.00 0.01 0.00 1 1016.5
20260905152507 54 360 0.0 0.0 0.00 0.01 0.00 1 1016.6
20260905152006 54 256 0.0 0.0 0.00 0.01 0.00 1 1016.7
20260905151504 54 256 0.0 0.0 0.00 0.01 0.00 1 1016.6
20260905151002 54 360 0.0 0.0 0.00 0.01 0.00 1 1016.5
20260905150501 53 360 0.0 0.0 0.00 0.01 0.00 1 1016.6
20260905150100 53 256 0.0 0.0 0.00 0.01 0.00 1 1016.5
20260905145559 53 256 0.0 0.0 0.00 0.01 0.00 1 1016.5
20260905145057 53 255 0.0 0.0 0.00 0.01 0.00 1 1016.5
20260905144557 53 256 0.0 0.0 0.00 0.01 0.00 1 1016.5
20260905144054 53 256 0.0 0.0 0.00 0.01 0.00 1 1016.5
20260905143553 53 255 0.0 0.0 0.00 0.01 0.00 1 1016.5
20260905143051 53 256 0.0 0.0 0.00 0.01 0.00 1 1016.6
20260905142553 53 256 0.0 0.0 0.00 0.01 0.00 1 1016.5
20260905142050 53 255 0.0 0.0 0.00 0.01 0.00 1 1016.5
20260905141547 53 256 0.0 0.0 0.00 0.01 0.00 1 1016.5
20260905141045 53 256 0.0 0.0 0.00 0.01 0.00 1 1016.5
20260905140544 53 255 0.0 0.0 0.00 0.01 0.00 1 1016.4
20260905140042 53 259 0.0 0.0 0.00 0.01 0.00 1 1016.3
20260905135545 53 259 0.0 0.0 0.00 0.01 0.00 1 1016.3
20260905135039 53 360 0.0 0.0 0.00 0.01 0.00 1 1016.1
20260905134538 53 259 0.0 0.0 0.00 0.01 0.00 1 1016.0
20260905134037 53 259 0.0 0.0 0.00 0.01 0.00 1 1016.0
20260905133534 53 259 0.0 0.0 0.00 0.01 0.00 1 1016.1
20260905133034 53 259 0.0 0.0 0.00 0.01 0.00 1 1016.1
20260905132532 54 360 0.0 0.0 0.00 0.01 0.00 1 1016.0
20260905132031 54 360 0.0 0.0 0.00 0.01 0.00 1 1016.0
20260905131529 54 259 0.0 0.0 0.00 0.01 0.00 1 1016.0
20260905131027 54 259 0.0 0.0 0.00 0.01 0.00 1 1016.0
20260905130529 54 259 0.0 0.0 0.00 0.01 0.00 1 1016.0
20260905130025 54 259 0.0 0.0 0.00 0.01 0.00 1 1015.9
20260905125523 54 259 0.0 0.0 0.00 0.02 0.00 1 1015.9
20260905125022 54 259 0.0 0.0 0.00 0.02 0.00 1 1015.9
20260905124520 54 259 0.0 0.0 0.00 0.02 0.00 1 1016.0
20260905124018 54 259 0.0 0.0 0.00 0.02 0.00 1 1016.0
20260905123517 54 360 0.0 0.0 0.00 0.02 0.00 1 1015.9
20260905123016 54 259 0.0 0.0 0.00 0.02 0.00 1 1016.0
20260905122516 54 360 0.0 0.0 0.00 0.02 0.00 1 1016.0
20260905122015 54 259 0.0 0.0 0.00 0.02 0.00 1 1015.9
20260905121511 54 259 0.0 0.0 0.00 0.02 0.00 1 1016.0
20260905121012 54 259 0.0 0.0 0.00 0.02 0.00 1 1015.7
20260905120508 54 259 0.0 0.0 0.00 0.02 0.00 1 1015.8
20260905120019 54 259 0.0 0.0 0.00 0.03 0.00 1 1015.9
20260905115506 55 259 0.0 0.0 0.00 0.03 0.00 1 1015.8
20260905115004 55 360 0.0 0.0 0.00 0.03 0.00 1 1015.8
20260905114503 55 259 0.0 0.0 0.00 0.03 0.00 1 1015.8
20260905114001 55 259 0.0 0.0 0.00 0.03 0.00 1 1015.8
20260905113600 55 259 0.0 0.0 0.00 0.03 0.00 1 1015.8
20260905113100 55 259 0.0 0.0 0.00 0.03 0.00 2 1015.8
20260905112557 55 259 0.0 0.0 0.00 0.03 0.00 2 1015.7
20260905112055 55 360 0.0 0.0 0.00 0.03 0.00 3 1015.6
20260905111646 55 259 0.0 0.0 0.00 0.03 0.00 3 1015.7
20260905111052 55 259 0.0 0.0 0.00 0.03 0.00 3 1015.7
20260905110551 55 259 0.0 0.0 0.00 0.03 0.00 4 1015.6
20260905110049 55 259 0.0 0.0 0.00 0.03 0.00 6 1015.6
20260905105548 55 259 0.0 0.0 0.00 0.03 0.00 6 1015.5
20260905105046 56 360 0.0 0.0 0.00 0.03 0.00 8 1015.5
20260905104545 56 259 0.0 0.0 0.00 0.03 0.00 8 1015.6
20260905104043 56 259 0.0 0.0 0.00 0.03 0.00 8 1015.7
20260905103544 56 259 0.0 0.0 0.00 0.03 0.00 8 1015.7
20260905103041 56 259 0.0 0.0 0.00 0.03 0.00 7 1015.5
20260905102542 56 259 0.0 0.0 0.00 0.03 0.00 7 1015.5
20260905102038 56 259 0.0 0.0 0.00 0.03 0.00 6 1015.5
20260905101537 56 259 0.0 0.0 0.00 0.03 0.00 7 1015.5
20260905101034 56 259 0.0 0.0 0.00 0.03 0.00 7 1015.6
20260905100533 56 259 0.0 0.0 0.00 0.03 0.00 7 1015.6
20260905100031 56 259 0.0 0.0 0.00 0.03 0.00 7 1015.6
20260905095530 56 259 0.0 0.0 0.00 0.03 0.00 7 1015.6
20260905095032 56 259 0.0 0.0 0.00 0.03 0.00 7 1015.6
20260905094528 56 259 0.0 0.0 0.00 0.03 0.00 7 1015.7
20260905094026 56 259 0.0 0.0 0.00 0.03 0.00 8 1015.7
20260905093525 57 259 0.0 0.0 0.00 0.03 0.00 8 1015.8
20260905093024 57 259 0.0 0.0 0.00 0.03 0.00 8 1015.7
20260905092526 57 257 0.0 0.0 0.00 0.03 0.00 8 1015.6
20260905092020 57 265 0.0 0.0 0.00 0.03 0.00 7 1015.6
20260905091520 57 265 0.0 0.0 0.00 0.03 0.00 7 1015.5
20260905091018 57 265 0.0 0.0 0.00 0.03 0.00 6 1015.5
20260905090515 57 265 0.0 0.0 0.00 0.03 0.00 7 1015.6
20260905090016 57 256 0.0 0.0 0.00 0.03 0.00 8 1015.5
20260905085513 57 234 0.0 0.0 0.00 0.03 0.00 9 1015.5
20260905085013 57 234 0.0 0.0 0.00 0.03 0.00 10 1015.5
20260905084511 57 233 0.0 0.0 0.00 0.03 0.00 12 1015.4
20260905084013 57 230 0.0 0.0 0.00 0.03 0.00 12 1015.5
20260905083513 57 257 0.0 0.0 0.00 0.03 0.00 14 1015.6
20260905083010 57 257 0.0 0.0 0.00 0.03 0.00 16 1015.5
20260905082509 57 246 0.0 0.0 0.00 0.03 0.00 16 1015.5
20260905082009 57 239 0.0 0.0 0.00 0.03 0.00 17 1015.4
20260905081508 57 243 0.0 0.0 0.00 0.03 0.00 18 1015.3
20260905081007 57 237 0.0 0.0 0.00 0.03 0.00 18 1015.4
20260905080510 57 237 0.0 0.0 0.00 0.03 0.00 18 1015.3
20260905080006 57 237 0.0 0.0 0.00 0.03 0.00 17 1015.3
20260905075506 57 237 0.0 0.0 0.00 0.03 0.00 19 1015.3
20260905075008 57 237 0.0 0.0 0.00 0.03 0.00 18 1015.2
20260905074506 57 237 0.0 0.0 0.00 0.03 0.00 19 1015.2
20260905074004 57 237 0.0 0.0 0.00 0.03 0.00 21 1015.0
20260905073504 57 237 0.0 0.0 0.00 0.03 0.00 24 1015.1
20260905073002 57 237 0.0 0.0 0.00 0.03 0.00 26 1015.0
20260905072502 57 237 0.0 0.0 0.00 0.03 0.00 26 1015.0
20260905072001 57 237 0.0 0.0 0.00 0.03 0.00 28 1014.9
20260905071501 57 237 0.0 0.0 0.00 0.03 0.00 29 1014.9
20260905071100 57 237 0.0 0.0 0.00 0.03 0.00 29 1014.8
20260905070602 57 237 0.0 0.0 0.00 0.03 0.00 29 1014.8
20260905065556 58 237 0.0 0.0 0.00 0.03 0.03 31 1014.7
20260905065055 58 237 0.0 0.0 0.00 0.03 0.03 31 1014.7
20260905064611 58 237 0.0 0.0 0.00 0.03 0.03 32 1014.5
20260905064052 58 258 0.0 0.0 0.00 0.03 0.03 34 1014.6
20260905063550 58 258 0.0 0.0 0.00 0.03 0.03 34 1014.6
20260905063050 58 258 0.0 0.0 0.00 0.03 0.03 36 1014.6
20260905062548 58 258 0.0 0.0 0.00 0.03 0.03 37 1014.5
20260905062047 58 258 0.0 0.0 0.00 0.03 0.03 39 1014.6
20260905061545 58 258 0.0 0.0 0.00 0.03 0.03 43 1014.7
20260905061045 58 258 0.0 0.0 0.00 0.03 0.03 45 1014.6
20260905060542 58 258 0.0 0.0 0.00 0.03 0.03 47 1014.6
20260905060042 58 258 0.0 0.0 0.00 0.03 0.03 47 1014.6
20260905055539 58 258 0.0 0.0 0.00 0.03 0.03 48 1014.6
20260905055038 58 258 0.0 0.0 0.00 0.03 0.03 48 1014.7
20260905054546 58 258 0.0 0.0 0.00 0.03 0.03 47 1014.6
20260905054037 58 258 0.0 0.0 0.00 0.03 0.03 48 1014.6
20260905053534 58 260 0.0 0.0 0.00 0.03 0.03 51 1014.4
20260905053036 58 260 0.0 0.0 0.00 0.03 0.03 53 1014.4
20260905052531 58 260 0.0 0.0 0.00 0.03 0.03 54 1014.4
20260905052029 58 260 0.0 0.0 0.00 0.03 0.03 55 1014.3
20260905051540 58 260 0.0 0.0 0.00 0.03 0.03 55 1014.4
20260905051025 58 260 0.0 0.0 0.00 0.03 0.03 55 1014.5
20260905050527 58 260 0.0 0.0 0.00 0.03 0.03 54 1014.4
20260905050023 57 260 0.0 0.0 0.00 0.03 0.03 54 1014.4
20260905045521 57 260 0.0 0.0 0.00 0.03 0.03 55 1014.3
20260905045020 57 258 0.0 0.0 0.00 0.03 0.03 52 1014.3
20260905044519 57 259 0.0 0.0 0.00 0.03 0.03 51 1014.3
20260905044018 57 209 0.0 0.0 0.00 0.03 0.03 48 1014.3
20260905043516 57 202 0.0 0.0 0.00 0.03 0.03 43 1014.3
20260905043015 57 202 0.0 0.0 0.00 0.03 0.03 41 1014.2
20260905042513 57 360 0.0 0.0 0.00 0.03 0.03 40 1014.2
20260905042012 57 360 0.0 0.0 0.00 0.03 0.03 39 1014.2
20260905041511 57 360 0.0 0.0 0.00 0.03 0.03 37 1014.2
20260905041008 57 360 0.0 0.0 0.00 0.03 0.03 38 1014.2
20260905040507 57 180 0.0 0.0 0.00 0.03 0.03 35 1014.2
20260905040014 57 185 0.0 0.0 0.00 0.03 0.03 35 1014.1
20260905035504 57 360 0.0 0.0 0.00 0.03 0.03 36 1014.2
20260905035004 58 146 0.0 0.0 0.00 0.03 0.03 37 1014.1
20260905034504 58 360 0.0 0.0 0.00 0.03 0.03 40 1014.1
20260905034102 58 360 0.0 0.0 0.00 0.03 0.03 43 1014.0
20260905033559 58 360 0.0 0.0 0.00 0.03 0.03 48 1013.9
20260905033057 58 360 0.0 0.0 0.00 0.03 0.03 52 1014.0
20260905032558 59 360 0.0 0.0 0.00 0.03 0.03 56 1013.9
20260905032054 59 63 0.0 0.0 0.00 0.03 0.03 59 1013.9
20260905031556 60 63 0.0 0.0 0.00 0.03 0.03 60 1013.8
20260905031052 60 63 0.0 0.0 0.00 0.03 0.03 61 1013.7
20260905030550 60 63 0.0 0.0 0.00 0.03 0.03 62 1013.7
20260905025549 61 63 0.0 0.0 0.00 0.03 0.03 64 1013.6
20260905025047 61 261 0.0 0.0 0.00 0.03 0.03 64 1013.6
20260905024550 62 261 0.0 0.0 0.00 0.03 0.03 65 1013.6
20260905024044 62 261 0.0 0.0 0.00 0.03 0.03 65 1013.6
20260905023543 62 261 0.0 0.0 0.00 0.03 0.03 65 1013.6